Wind_Speed
17 18 19 20 21 23 25 26 27 28 29 29 31 32 33 34 35 36 37 37 38 38 38 38 39 40 40 40 41 42 42 41 40 40 39 39 39 39 39 40 40 40 41 41 41 42 42 43 44 45 45 46 46 46 46 45 45 45 45 45 45 46 45 45 43 40 39 41 40 39 40 39 37 35 35 34 32 32 31 32 34 35 35 34 36
17 18 18 19 21 24 25 27 28 28 28 29 30 31 33 34 35 36 37 37 38 38 39 40 41 41 41 42 43 43 42 41 40 40 39 39 39 39 39 39 39 40 41 41 42 42 42 43 44 45 46 46 47 47 47 47 47 47 47 48 47 47 47 47 46 43 40 41 42 41 41 41 39 38 37 36 34 33 32 32 33 34 36 36 35
20 21 21 22 25 27 29 29 30 31 31 31 32 32 33 34 35 36 37 37 38 39 40 41 42 42 43 43 44 44 42 41 41 40 40 39 39 39 39 39 40 40 41 41 42 43 43 44 44 45 46 47 47 48 49 49 49 49 49 49 49 49 49 49 48 46 42 41 42 43 43 43 42 40 39 38 37 35 34 33 33 34 35 36 36
22 23 24 26 28 29 30 31 32 32 33 33 33 33 34 35 35 36 37 37 39 40 42 43 43 43 44 44 44 43 42 41 41 41 41 40 40 40 41 41 41 42 42 42 43 43 44 44 45 46 46 47 48 49 50 50 51 51 51 51 51 51 51 51 50 49 46 43 42 43 44 44 44 42 41 41 39 37 35 34 34 35 35 35 37
24 25 27 29 30 30 31 32 32 32 32 33 33 34 34 35 35 36 37 38 40 42 43 43 44 44 44 44 43 42 41 41 41 41 41 41 42 42 43 43 43 44 44 44 44 45 45 46 46 47 47 48 49 49 50 51 52 52 52 52 53 52 52 52 52 52 50 47 44 44 45 45 45 44 42 43 41 39 37 36 36 35 35 35 36
27 28 30 30 31 31 32 33 33 33 32 32 33 34 34 35 35 36 38 40 41 42 43 44 44 44 43 42 41 41 41 42 42 42 42 43 43 44 45 45 45 45 45 45 45 45 46 46 47 47 48 49 49 50 51 52 52 53 54 54 54 54 54 53 53 53 53 51 48 45 45 46 47 46 44 44 43 41 40 39 38 36 35 35 35
29 30 31 31 32 32 33 33 33 33 33 33 33 33 34 35 36 37 39 40 41 42 43 43 43 42 41 41 41 41 41 42 42 43 43 44 45 45 45 45 45 45 45 45 45 46 46 47 47 48 48 49 49 50 51 52 53 54 55 55 55 56 56 55 55 55 55 54 51 49 47 47 47 47 46 46 45 44 43 41 39 37 36 36 37
31 32 32 32 32 33 33 33 32 32 33 33 33 33 34 35 37 38 39 40 42 42 42 42 41 40 40 40 41 41 41 42 43 44 44 45 45 45 45 44 44 45 45 45 45 46 46 47 48 48 49 49 50 51 52 52 53 54 55 56 57 57 57 57 57 57 56 56 54 52 50 49 48 47 48 48 48 46 45 43 41 40 39 38 38
32 32 33 33 33 33 34 33 33 33 34 34 34 34 35 36 37 38 40 40 41 40 40 39 39 39 40 40 40 41 42 42 43 43 43 44 44 44 44 43 43 43 44 44 44 45 46 47 48 49 49 50 51 52 53 54 55 55 56 57 57 58 58 59 59 59 59 58 57 55 53 51 50 49 48 50 50 48 46 46 44 43 42 40 39
33 33 33 33 34 34 34 34 34 35 35 35 35 35 36 37 38 38 39 38 38 38 38 38 38 39 39 40 41 41 42 43 43 43 43 43 43 43 43 43 43 43 43 43 44 45 46 47 48 49 50 51 52 53 54 55 56 57 58 59 59 59 60 60 60 60 61 60 59 58 56 54 53 52 50 50 51 50 48 48 47 45 44 43 41
32 32 33 33 33 34 34 35 36 36 35 35 36 36 37 37 37 36 35 35 36 36 37 37 37 38 39 40 41 41 42 42 42 42 42 42 42 42 42 42 43 43 44 44 45 45 46 47 48 50 51 52 53 53 54 55 57 59 60 61 62 62 62 62 62 62 62 62 61 60 59 57 55 55 54 52 52 52 51 50 49 47 47 45 42
31 31 31 31 31 31 33 34 34 34 35 36 36 35 34 33 32 32 33 34 35 35 36 36 37 38 39 39 40 40 41 41 41 41 41 41 42 42 42 43 43 44 45 45 45 46 46 47 48 50 51 52 53 54 54 55 57 59 60 62 63 64 65 65 64 64 64 64 63 62 61 60 58 57 56 55 54 53 53 53 51 50 49 47 44
29 29 29 29 29 30 30 27 26 27 30 31 30 29 29 29 30 31 32 33 34 34 35 35 36 37 38 39 39 39 40 40 40 40 40 41 41 42 42 43 43 44 44 45 45 46 46 47 49 50 51 52 53 54 55 55 56 57 59 61 63 64 66 66 67 67 66 66 65 64 63 62 60 58 58 58 57 54 54 54 53 51 50 49 46
29 28 28 28 28 30 28 23 22 23 24 25 26 26 27 28 29 30 31 32 33 33 34 35 36 36 37 37 38 38 38 39 39 39 40 40 41 42 42 42 43 43 44 44 45 46 47 48 49 50 51 53 54 54 55 56 57 57 58 59 61 63 65 67 68 68 68 68 67 66 65 64 63 60 59 59 59 57 55 55 54 53 52 51 49
29 28 28 28 28 28 25 22 21 22 22 23 24 25 26 28 29 30 30 31 32 33 34 34 35 35 36 36 36 37 37 37 38 38 39 40 40 41 41 42 42 43 43 44 46 47 48 49 49 50 52 53 54 56 56 57 58 59 59 59 60 61 63 65 67 68 69 69 69 68 66 65 64 63 61 60 60 59 58 56 55 54 55 54 51
29 28 28 27 26 25 23 20 20 20 21 23 24 25 26 27 28 29 30 31 32 33 33 33 33 34 34 35 35 35 35 36 37 38 38 39 39 40 40 41 42 42 43 44 45 46 48 49 50 51 53 54 55 56 57 58 59 60 61 61 61 61 62 64 65 67 68 69 69 69 67 65 65 64 63 61 61 61 60 59 57 56 56 55 52
28 27 26 25 24 22 21 20 19 20 21 22 24 24 25 26 27 28 30 31 32 32 32 32 32 33 33 33 34 34 35 35 36 37 37 38 39 39 40 40 41 42 43 43 44 45 47 49 51 52 54 55 56 56 57 58 59 60 61 62 62 62 62 63 64 64 66 67 67 68 68 66 64 64 64 63 62 62 62 60 58 57 57 56 53
25 24 23 22 21 20 19 19 20 21 22 22 23 24 24 26 27 29 29 30 30 30 31 31 31 32 32 32 33 33 34 35 35 36 37 37 38 39 39 40 40 41 41 42 43 45 47 49 51 52 54 55 56 57 58 58 59 60 60 60 59 58 57 58 59 60 62 64 65 65 66 66 63 63 64 63 62 63 63 60 59 59 58 56 54
23 22 21 20 19 18 19 19 20 21 22 22 23 23 25 26 27 28 29 29 29 30 30 30 31 31 31 32 33 33 34 34 35 35 36 37 38 39 39 39 39 40 40 41 42 44 46 49 50 52 53 54 55 57 59 59 59 57 55 53 51 48 47 47 49 50 53 57 61 63 63 64 62 60 61 63 63 63 62 60 61 61 59 56 56
23 21 20 19 19 19 19 20 20 21 21 22 23 24 25 27 27 28 28 28 29 29 30 30 30 31 31 32 33 33 34 34 35 35 36 37 38 38 38 39 39 40 40 41 42 44 47 48 49 51 52 53 55 57 58 57 54 50 47 44 40 38 36 36 36 38 39 42 49 56 59 61 60 58 58 60 62 62 62 61 61 61 60 58 56
22 20 19 19 19 20 20 21 21 21 22 23 24 25 26 27 27 27 27 28 29 29 29 30 30 30 31 32 33 33 34 34 35 36 37 38 38 38 38 38 39 40 40 42 43 45 47 48 49 50 51 53 56 57 56 52 46 42 39 36 33 30 27 25 26 26 24 25 32 41 46 50 52 53 55 58 59 60 61 61 60 60 60 59 57
20 19 20 20 20 20 21 21 21 22 23 24 25 26 26 26 26 27 27 28 28 28 29 29 30 30 31 32 32 33 34 35 36 37 37 37 37 38 38 39 39 40 41 42 44 46 47 48 49 50 52 54 57 56 52 44 38 34 34 32 28 22 17 16 18 18 17 20 22 24 27 32 36 40 45 51 56 58 59 59 59 59 60 59 58
19 20 20 20 20 21 21 21 22 23 24 25 26 26 26 26 26 27 27 28 28 28 28 29 30 30 31 31 32 33 34 35 36 37 37 37 37 37 38 39 39 39 40 42 44 46 47 48 49 50 52 56 58 55 47 38 31 28 28 28 23 17 13 14 16 15 15 20 22 17 16 19 23 27 32 38 46 53 57 58 57 57 58 58 57
20 20 20 20 21 22 22 23 24 25 25 25 25 25 25 25 26 26 27 27 27 28 28 29 29 30 31 31 32 33 35 36 37 37 37 36 36 37 38 38 38 39 40 42 44 46 47 47 49 51 53 57 59 54 44 33 26 22 23 26 23 18 17 17 15 12 11 17 22 16 11 12 16 20 25 31 37 43 51 56 56 55 55 55 56
20 20 20 21 22 23 23 24 25 25 25 24 24 24 24 25 26 26 27 27 27 27 28 28 29 29 30 31 32 33 35 36 36 35 35 35 35 36 37 37 38 38 40 41 43 45 46 48 50 52 54 57 58 54 42 29 21 18 21 26 25 20 19 18 17 13 7 11 18 17 14 15 17 18 23 29 34 38 44 51 54 53 52 52 52
20 21 21 22 23 23 24 24 24 24 24 23 23 24 24 25 26 26 26 26 26 26 27 27 28 28 29 30 32 33 34 34 34 33 32 33 34 35 35 36 37 37 38 40 42 43 45 47 50 52 54 57 57 53 43 30 21 18 20 26 27 23 18 17 18 15 6 6 12 15 18 20 20 20 23 27 31 33 39 47 50 49 49 49 49
21 21 22 23 23 23 24 24 24 23 23 23 23 24 25 25 25 25 25 25 25 26 26 26 27 27 28 30 31 32 33 32 31 30 30 31 32 33 34 34 35 36 37 38 40 42 44 47 50 52 53 56 56 52 43 33 25 21 20 22 26 26 20 15 15 15 7 6 9 12 16 19 18 19 23 28 31 31 32 40 47 48 47 47 47
21 22 22 23 23 23 23 23 23 22 22 22 23 24 24 24 24 24 25 25 25 25 25 25 25 26 27 29 30 31 31 30 28 28 28 30 31 32 33 33 34 35 36 38 40 42 44 46 48 50 51 53 54 50 42 34 27 24 21 20 22 26 23 16 15 16 11 6 9 9 12 15 16 17 19 24 31 35 33 34 38 42 44 45 46
22 22 22 22 23 23 23 22 21 21 21 22 23 23 23 23 23 23 23 24 23 23 23 23 24 25 27 28 29 30 29 28 26 26 27 28 30 31 32 33 34 35 36 38 40 41 42 44 46 48 49 50 52 51 43 34 28 25 23 22 20 23 25 19 15 14 12 7 11 12 11 10 11 15 18 20 25 32 37 36 34 34 36 37 37
22 22 22 23 23 23 22 21 20 20 21 22 22 22 22 22 22 22 22 22 22 21 21 22 23 24 26 27 28 28 27 26 25 25 26 28 29 31 33 34 35 36 37 39 40 40 41 42 43 45 47 49 50 51 46 37 29 25 23 23 21 20 23 22 16 14 12 9 10 14 15 11 7 8 15 20 22 25 32 37 38 36 34 33 32
21 22 22 23 23 22 21 20 20 20 21 21 21 21 21 21 21 21 21 21 20 20 20 21 22 23 25 26 27 27 26 25 25 25 26 27 29 31 32 33 35 36 37 38 39 39 40 40 42 43 45 47 49 51 49 42 34 26 23 22 22 20 20 21 17 13 13 12 11 12 13 14 12 7 6 13 19 23 25 30 36 37 36 35 35
21 21 22 22 21 20 19 19 19 20 20 20 20 20 21 21 20 20 19 19 18 18 19 20 21 23 24 25 25 25 25 24 24 24 25 27 28 30 31 33 35 36 37 37 38 39 39 39 40 42 44 46 47 49 50 47 40 31 25 22 21 20 19 18 19 15 12 12 13 12 11 12 13 10 6 4 9 17 22 25 29 32 32 31 33
21 21 21 20 19 18 18 18 19 19 19 19 20 20 20 20 19 18 17 17 17 17 17 19 20 22 23 23 24 24 24 24 24 24 25 26 28 30 31 33 35 36 36 37 37 38 38 39 39 40 42 44 45 46 48 48 45 38 30 25 23 21 20 18 19 19 16 11 12 13 13 11 10 12 11 7 3 5 14 22 26 27 26 26 27
20 20 19 18 17 17 17 18 18 18 18 19 19 19 19 18 18 17 16 15 15 16 16 18 19 20 21 22 22 23 23 23 23 24 25 26 28 29 31 32 34 35 36 36 37 37 38 38 38 39 40 42 43 44 45 46 46 43 36 30 26 23 20 18 18 18 17 13 8 10 13 12 10 10 13 13 8 4 5 13 20 23 24 24 25
19 18 17 16 16 16 17 17 17 17 18 18 18 18 17 16 15 14 14 13 14 14 15 17 18 19 20 21 21 22 22 23 23 23 24 25 27 28 30 31 32 34 35 36 36 37 37 38 38 38 39 40 41 42 44 45 45 44 42 36 30 25 22 19 18 18 17 15 11 6 8 10 10 8 6 10 11 8 5 4 9 15 19 21 22
18 17 16 16 16 16 16 16 16 17 17 18 18 16 15 14 13 13 12 12 13 13 15 16 17 18 19 20 21 21 22 22 22 23 23 24 26 27 28 29 31 33 34 35 36 36 37 37 37 38 38 38 39 40 42 43 44 44 44 42 37 30 25 21 18 18 18 18 16 12 8 6 6 6 4 5 6 5 3 2 4 8 12 15 16
16 16 15 15 15 15 15 15 16 17 17 17 16 14 13 12 11 11 11 11 12 13 14 15 16 17 18 19 20 21 22 22 23 23 23 24 25 26 27 29 30 32 33 35 35 36 36 37 37 37 37 38 38 39 39 40 42 43 43 43 41 38 32 27 22 20 18 18 19 17 14 10 8 6 6 7 7 6 5 5 5 6 8 10 12
15 15 15 14 14 14 15 15 16 16 16 15 13 12 10 10 9 10 10 11 12 12 14 15 15 16 18 19 20 21 22 23 23 24 24 24 25 26 27 28 30 31 32 34 34 35 35 36 36 36 37 37 37 37 38 38 39 40 41 41 41 41 39 35 29 25 20 17 16 17 16 14 10 9 8 8 8 9 9 8 8 8 7 7 9
15 14 13 13 13 14 14 15 15 15 14 12 10 9 8 8 8 9 9 10 11 12 13 14 15 16 17 19 20 21 22 23 24 25 25 26 26 27 27 28 29 30 31 32 33 34 34 35 35 35 36 36 37 37 37 37 37 37 38 39 39 39 39 39 37 33 28 22 17 13 13 13 12 10 9 8 7 7 8 9 11 13 13 11 9
14 13 13 13 13 14 14 14 14 13 11 9 7 6 6 7 7 8 9 9 10 11 13 14 15 16 17 19 20 21 23 24 25 25 26 27 27 27 27 28 28 29 30 31 32 33 34 34 34 35 35 35 35 36 36 36 36 36 36 36 37 38 38 38 38 38 36 32 26 19 13 11 10 10 10 9 8 7 7 7 7 9 10 12 12
13 12 12 12 13 13 14 13 12 10 7 6 5 5 5 6 7 7 8 9 10 11 12 14 15 16 17 19 20 21 22 24 25 25 26 27 27 28 28 28 28 29 29 30 31 32 33 33 33 34 34 34 34 35 35 36 36 35 35 35 35 36 36 36 36 37 36 35 33 29 23 16 11 9 8 9 9 9 9 9 8 7 8 8 8
12 12 11 12 12 13 12 11 9 6 4 4 4 5 5 6 6 7 8 9 10 11 13 14 15 16 17 19 20 21 22 23 24 25 26 27 28 28 28 28 28 28 29 30 30 31 32 32 33 33 33 33 33 33 34 34 35 35 35 35 35 34 34 35 35 35 35 34 34 34 32 27 22 15 10 8 8 8 9 10 10 10 10 10 10
11 11 11 11 11 10 9 7 5 4 4 3 4 4 5 5 6 7 8 9 10 12 13 14 15 16 18 19 20 21 22 23 24 25 26 27 28 29 29 29 29 29 29 29 30 30 31 31 32 32 32 32 32 33 33 33 33 34 34 34 34 34 33 33 33 33 33 33 33 33 33 32 30 26 21 16 11 8 8 9 10 11 11 12 12
10 10 10 10 9 8 6 5 4 4 4 4 4 4 5 6 7 8 9 10 11 12 13 14 15 17 18 19 20 21 22 23 24 25 26 27 27 28 29 30 30 30 29 29 29 30 30 31 31 32 32 32 32 32 32 32 32 33 33 33 33 33 32 32 31 31 31 31 31 31 31 31 31 30 29 26 22 17 12 9 8 9 10 11 12
9 8 8 7 6 5 5 4 4 4 4 4 4 5 6 7 8 9 11 12 13 13 14 15 16 17 18 19 20 22 23 24 24 25 26 27 27 28 28 29 30 30 30 30 29 29 29 30 30 31 31 32 32 31 31 31 31 31 31 32 32 32 32 31 31 30 30 30 30 30 30 29 29 28 28 28 27 25 22 18 14 11 9 10 11
8 7 6 5 5 5 5 5 5 5 5 5 6 6 7 9 10 11 12 13 14 15 16 17 18 19 19 20 21 22 23 24 25 25 26 27 27 28 28 28 29 30 30 30 30 29 29 29 29 30 30 30 31 31 31 31 31 30 30 30 30 31 31 31 31 30 30 29 28 28 28 28 28 27 27 26 26 25 25 24 22 19 15 12 11
8 6 5 5 5 5 5 5 5 6 6 7 8 9 10 11 12 13 14 15 16 17 18 19 19 20 21 22 22 23 23 24 25 26 26 27 27 28 28 28 28 29 30 30 30 30 29 29 29 29 29 29 30 30 30 30 30 30 30 30 30 30 30 30 30 30 29 29 28 27 27 26 26 26 26 26 25 24 24 23 23 22 21 19 16
8 7 5 5 6 6 6 7 7 8 9 9 10 11 12 13 14 15 16 17 17 18 19 20 21 21 22 23 24 24 25 25 26 26 27 27 27 28 28 29 29 28 29 29 29 30 29 29 29 29 29 29 29 29 29 29 29 29 30 30 30 29 29 29 28 28 28 28 28 27 27 26 25 25 25 25 24 24 23 23 22 21 21 20 19
10 8 7 7 8 8 8 9 10 11 12 12 13 14 15 15 16 17 18 19 20 20 21 21 22 23 23 24 25 26 26 27 27 27 27 28 28 28 28 29 29 29 29 29 29 29 29 29 29 29 29 29 29 29 29 29 29 28 29 29 29 29 29 29 28 27 27 27 27 27 27 26 26 25 24 24 23 23 23 22 22 21 20 20 19
12 11 10 10 10 11 11 12 13 13 14 15 16 17 17 18 18 19 19 20 21 22 23 23 24 24 25 25 25 26 27 28 28 28 28 28 28 29 29 29 29 29 29 29 29 29 29 29 29 29 29 29 29 29 29 29 29 28 28 28 28 28 28 28 28 28 27 26 26 26 26 26 26 25 25 24 23 22 22 22 21 21 20 20 19
14 14 13 13 13 14 14 15 15 16 17 17 18 19 20 20 20 21 21 22 22 23 24 25 25 26 26 26 26 27 27 28 29 30 30 29 29 29 29 30 30 30 30 29 29 29 29 29 29 28 28 28 29 29 29 29 29 28 28 28 28 28 28 27 27 27 27 27 26 26 25 25 25 25 25 24 24 23 22 22 21 21 20 20 20
Wind_Direction
278 280 281 283 284 284 285 284 284 285 286 285 282 280 280 281 283 285 287 289 291 293 295 297 298 300 301 302 301 301 301 300 299 298 297 296 295 295 294 293 292 290 289 288 287 286 284 284 283 282 282 281 280 280 279 279 279 279 279 278 277 277 277 277 276 275 275 277 278 277 277 277 278 279 280 279 278 274 269 264 260 258 256 253 250
278 281 281 283 286 287 287 285 284 285 287 288 286 283 281 281 282 283 285 287 289 291 293 294 296 298 299 300 300 301 301 300 299 298 298 298 297 296 295 294 293 292 290 289 287 286 284 283 282 281 281 280 279 279 278 278 278 278 278 278 277 277 276 275 275 274 272 273 274 274 274 275 275 275 276 277 277 276 273 269 264 260 258 255 251
279 279 279 283 287 289 289 287 286 285 285 285 285 283 282 281 281 282 284 286 288 289 291 292 295 297 299 301 301 302 301 300 300 300 300 299 299 297 296 294 293 292 291 289 288 286 285 283 282 281 280 279 278 278 277 277 276 276 276 276 276 276 276 275 274 273 271 269 270 271 272 272 272 273 273 273 274 275 274 272 267 262 259 257 253
279 279 281 285 289 291 291 290 287 285 283 282 282 281 281 280 280 281 283 285 286 288 290 292 295 297 300 301 302 302 302 301 301 301 301 300 299 298 297 295 294 293 291 290 289 287 286 284 283 281 280 279 278 277 276 276 275 275 274 274 274 274 274 274 274 273 271 269 267 267 268 269 270 270 270 270 271 272 272 271 269 265 260 257 255
277 279 283 287 290 291 291 289 286 284 282 281 280 280 279 279 279 281 283 284 285 287 290 293 296 298 300 301 301 301 302 302 302 301 301 300 299 298 297 296 295 294 292 291 289 288 287 285 284 283 281 280 278 277 276 275 275 274 273 273 272 272 272 272 272 272 271 269 266 265 265 265 266 266 267 267 268 268 268 269 269 267 263 259 255
277 282 286 288 289 289 288 286 284 282 281 281 280 280 279 279 280 281 282 283 286 288 291 294 297 299 299 300 300 301 301 301 301 301 300 300 299 298 297 296 295 294 293 292 291 289 288 286 285 283 282 281 279 278 277 276 275 274 273 272 271 271 270 269 269 269 270 269 267 264 263 263 263 264 264 264 265 265 265 266 267 267 265 262 257
281 284 287 288 289 288 287 285 284 284 283 281 281 280 279 279 279 280 282 284 287 290 293 295 297 298 298 299 300 301 301 301 300 300 300 299 299 298 298 297 296 296 295 294 293 292 290 289 288 286 284 283 281 280 278 277 276 275 273 272 271 270 269 269 268 267 267 267 266 264 262 261 260 261 262 262 262 262 263 264 265 265 264 262 260
284 286 287 288 287 287 286 285 285 285 284 281 280 279 278 277 278 280 283 286 288 291 293 295 296 297 298 300 301 301 301 300 300 300 300 300 299 299 298 298 297 296 296 295 294 293 292 290 289 288 287 285 284 282 280 279 277 276 274 273 271 270 269 268 267 266 265 264 264 263 261 260 259 258 258 259 260 260 261 262 262 262 262 262 262
286 287 287 287 286 285 285 284 284 284 283 281 279 278 278 278 280 282 284 287 290 292 293 294 295 298 299 300 300 300 300 300 300 300 300 299 299 298 297 296 295 295 294 293 293 292 292 291 290 289 288 287 285 284 283 281 279 277 275 273 272 270 269 267 266 265 264 263 262 261 260 259 258 256 255 256 257 257 258 258 258 259 261 262 262
286 287 287 286 286 285 285 284 284 283 282 280 278 277 277 278 280 282 285 288 290 291 293 295 297 298 299 299 299 300 300 300 300 299 299 298 298 297 296 296 296 296 296 295 295 295 294 293 292 291 290 289 288 287 285 284 282 279 277 274 272 270 269 267 266 264 263 262 261 260 258 257 256 256 254 253 254 255 255 256 256 257 258 258 258
285 286 287 287 287 287 286 285 283 281 280 278 276 276 276 277 280 283 286 288 290 292 294 296 297 298 298 299 299 299 299 300 300 300 299 299 299 299 300 300 300 300 300 300 299 299 298 297 295 294 293 291 290 288 287 286 285 283 281 278 275 272 269 267 265 263 262 261 259 258 257 256 254 254 253 252 252 252 253 253 254 254 255 255 256
285 286 288 289 289 288 287 285 282 280 279 277 276 275 276 279 282 285 288 289 291 293 295 296 297 297 298 298 299 299 300 300 301 301 301 302 303 303 304 304 304 304 304 303 302 302 301 299 298 297 295 294 292 290 289 287 286 284 283 281 279 276 273 269 266 263 261 259 258 257 256 255 253 251 252 251 250 250 250 251 252 252 253 254 255
284 286 288 289 288 287 288 289 286 284 282 279 278 278 280 282 285 287 289 290 292 294 295 296 296 297 298 299 299 300 301 302 302 303 304 305 306 307 307 307 307 306 306 305 304 303 303 302 301 300 298 297 295 293 291 289 287 285 284 282 280 278 275 273 269 265 261 258 256 255 254 253 251 249 249 249 249 248 248 249 249 251 252 253 254
283 284 287 288 287 287 288 286 283 282 280 279 279 281 282 285 286 288 289 291 292 294 295 296 296 297 299 300 301 302 303 304 305 306 307 308 308 309 308 308 307 307 306 306 306 305 305 304 303 302 301 300 298 296 294 292 290 287 284 282 280 278 276 274 271 268 264 260 256 253 251 251 250 248 246 247 247 247 246 247 247 248 250 250 250
281 283 285 286 287 287 287 283 279 278 278 279 281 283 285 286 287 288 290 292 293 294 295 296 297 299 300 301 302 304 305 307 308 308 309 309 309 309 309 308 308 308 308 308 308 307 307 306 305 304 303 303 301 299 297 295 292 289 286 283 280 278 275 273 271 268 266 263 259 254 250 248 248 247 245 244 245 245 245 245 245 246 247 248 248
280 281 283 285 285 284 284 282 280 281 282 283 284 285 286 287 289 290 292 293 294 295 296 297 299 300 302 303 305 306 307 308 309 310 310 310 310 310 310 311 311 311 311 311 310 310 309 309 308 308 307 306 304 302 300 297 294 291 288 286 283 279 276 273 270 267 265 263 260 257 252 248 245 245 243 241 242 243 243 243 243 244 245 246 247
280 280 282 282 281 281 282 283 284 285 285 285 286 287 288 289 291 292 292 293 294 296 297 299 301 302 303 305 306 307 308 309 310 310 311 311 312 312 313 313 314 314 314 314 314 314 314 314 313 312 311 309 307 305 302 300 297 294 291 289 285 281 277 273 269 265 263 261 259 257 254 250 244 242 241 240 238 239 241 241 242 243 243 244 245
281 280 280 279 279 280 283 286 286 286 286 287 289 290 291 291 291 291 293 294 295 297 299 301 302 303 304 305 306 307 308 309 310 312 313 314 315 316 316 316 317 317 317 318 318 318 318 318 317 316 315 313 311 309 307 304 302 298 295 291 287 283 278 273 269 265 261 258 256 255 254 252 246 241 239 238 236 236 238 239 240 241 242 242 244
281 279 278 279 282 284 286 287 288 289 290 291 292 291 291 291 292 293 294 296 298 300 301 302 303 303 304 306 307 308 309 311 312 314 316 318 319 319 319 319 319 320 320 321 321 321 322 322 321 320 318 317 316 315 313 311 308 303 298 294 290 286 281 276 271 266 261 257 254 252 251 251 248 242 238 236 235 234 235 236 237 239 241 241 242
278 277 279 282 285 287 288 290 292 292 293 293 292 292 292 293 294 295 297 298 300 301 301 302 303 304 305 307 308 310 311 312 315 317 319 321 321 321 322 322 322 323 323 323 324 324 325 325 324 323 322 322 323 322 320 317 312 307 303 299 295 291 286 281 275 269 264 260 255 252 249 248 248 243 238 235 234 232 232 233 235 237 239 240 241
275 276 280 282 285 287 290 292 293 294 294 294 294 294 295 295 295 296 298 299 300 300 301 302 303 305 306 308 310 312 313 315 318 320 322 323 323 323 324 325 326 326 326 326 327 328 328 328 327 327 328 328 329 329 326 321 316 311 309 306 303 299 294 288 282 273 260 253 256 255 251 249 249 245 239 236 233 231 230 231 232 234 236 238 239
273 276 278 281 285 289 292 293 295 295 295 295 295 295 294 294 294 296 297 298 299 300 301 303 304 306 308 310 313 315 318 320 323 324 325 325 325 326 327 328 329 329 329 329 330 331 332 331 331 332 333 334 336 335 330 323 318 315 314 313 309 303 300 301 295 278 248 233 241 251 250 250 250 246 240 237 235 231 229 229 230 232 234 236 238
272 275 278 283 288 292 295 296 296 295 294 294 293 292 292 293 294 296 297 298 299 300 302 304 306 308 311 314 317 320 322 325 326 327 327 327 328 330 331 332 332 331 332 333 334 334 335 335 336 338 339 340 341 340 334 326 322 321 322 322 313 294 292 309 303 285 257 235 228 230 237 246 251 244 235 236 237 233 228 228 229 230 231 234 236
271 275 281 287 292 295 296 295 294 293 291 291 290 290 291 293 295 296 297 298 300 302 304 307 309 311 315 318 321 323 326 327 328 329 329 330 332 334 335 334 334 334 335 336 337 337 338 340 342 344 344 345 345 344 339 330 324 327 333 335 324 296 291 308 312 304 281 242 227 224 230 242 249 241 229 229 234 234 229 226 228 230 231 232 234
272 277 284 289 292 293 293 292 290 289 288 287 287 289 291 293 295 296 298 300 301 304 306 309 311 315 318 321 324 326 328 329 330 331 332 334 336 337 337 337 337 338 338 339 339 341 342 345 347 348 349 349 349 347 343 333 324 329 344 351 343 318 301 309 319 323 305 232 221 222 229 238 242 235 225 224 230 233 230 226 227 230 231 232 233
274 279 285 288 290 290 289 288 287 285 285 286 287 290 293 295 296 298 299 301 303 305 308 310 313 317 320 323 325 327 329 330 331 332 334 336 338 339 339 340 340 340 341 341 342 345 347 349 351 352 352 353 352 350 347 339 327 326 342 355 355 342 320 312 320 327 319 228 226 228 229 235 237 228 222 222 225 230 230 227 227 230 232 232 233
274 280 284 286 287 287 286 285 284 283 284 286 288 292 294 296 297 298 300 302 304 306 308 311 315 319 321 324 326 328 330 331 332 334 336 337 339 341 342 343 343 343 343 344 346 349 351 353 354 355 355 356 356 353 349 343 332 322 328 348 359 355 338 313 313 326 317 236 239 241 234 234 236 233 230 225 220 222 225 225 225 228 231 232 234
276 280 282 284 284 284 282 281 281 282 284 287 290 293 295 296 297 298 300 302 304 306 309 312 316 319 321 324 327 329 330 332 333 334 336 338 340 343 344 345 345 345 346 348 350 353 354 355 357 357 357 359 359 357 352 345 336 324 319 332 353 0 352 328 315 331 334 261 233 238 234 237 244 242 237 230 225 224 224 222 222 225 228 231 233
275 278 280 281 281 280 279 278 279 281 284 289 292 293 294 296 298 299 301 303 305 307 310 314 317 319 322 325 327 329 331 332 332 333 335 339 342 344 346 347 348 348 350 352 354 355 356 357 358 359 359 0 2 2 359 351 342 332 322 320 334 354 359 346 321 325 335 295 249 244 236 239 249 242 231 228 228 228 228 227 226 226 227 227 230
274 276 277 277 277 276 275 275 278 282 287 290 292 293 295 297 299 300 302 303 305 307 311 314 317 320 323 326 328 330 331 332 333 333 337 340 343 346 348 349 351 352 354 356 357 357 358 358 359 360 1 2 4 5 4 360 352 342 331 323 324 340 357 357 337 318 325 321 285 267 257 254 263 245 227 225 228 228 228 229 232 235 235 232 232
272 273 274 274 273 272 273 276 281 286 289 291 292 294 296 298 299 300 301 303 305 308 311 315 318 322 325 328 330 332 333 334 334 335 338 342 346 348 350 351 354 356 358 358 358 358 359 359 0 1 3 5 6 8 8 7 2 353 342 332 326 326 342 359 357 334 324 328 321 300 279 270 272 272 236 225 226 225 223 224 229 234 237 237 237
269 270 270 270 269 270 274 280 285 288 289 291 293 295 297 298 299 300 301 303 306 309 313 317 320 324 328 330 332 334 335 335 336 337 340 344 347 350 352 355 357 359 359 359 359 359 359 0 1 3 5 6 8 11 11 11 9 2 352 342 333 322 324 348 7 7 345 325 318 315 308 293 281 278 287 278 234 225 224 224 224 227 230 233 235
265 265 265 266 268 272 279 283 285 287 289 292 293 295 297 298 299 300 302 304 307 311 315 320 324 328 331 334 336 337 337 338 339 340 343 346 349 351 354 358 0 0 359 360 0 1 1 1 2 4 6 8 10 12 14 15 14 10 2 352 344 334 324 329 351 8 9 348 314 304 311 316 299 274 269 284 298 225 225 226 224 223 224 227 229
261 261 262 265 270 275 279 281 284 287 290 292 294 296 297 298 299 300 302 305 309 314 319 324 328 332 335 338 339 340 340 341 342 344 346 349 350 353 356 359 0 360 0 1 1 1 2 2 3 5 7 9 10 12 15 17 18 17 13 4 356 351 342 329 328 343 2 12 348 299 298 312 315 290 265 260 272 300 253 226 222 222 223 225 227
258 259 262 267 272 276 278 281 285 288 291 293 296 297 297 298 298 298 301 306 311 317 323 328 333 336 339 341 343 343 344 345 346 348 350 351 352 354 357 359 359 0 1 1 2 2 3 3 4 6 8 10 11 13 15 17 19 21 21 17 8 1 356 345 329 322 334 359 14 350 303 303 310 312 285 260 264 288 312 268 230 224 225 228 232
256 258 263 268 272 275 279 283 286 290 293 295 296 296 296 296 296 297 302 308 314 320 326 332 337 340 343 345 346 347 348 348 349 351 353 353 354 355 357 358 359 0 1 2 2 3 3 4 5 7 8 10 12 14 15 17 18 21 23 23 20 13 6 357 346 332 325 332 346 357 356 338 313 299 278 247 243 250 257 247 227 221 224 230 235
254 258 264 268 272 276 280 284 288 292 294 295 295 295 293 292 293 299 306 312 318 323 330 337 342 344 346 348 349 350 351 351 352 353 355 355 356 356 357 358 360 0 1 2 3 3 4 4 5 7 8 10 12 14 15 17 18 20 22 24 24 23 18 10 3 355 344 332 329 334 344 357 357 335 305 280 266 258 240 212 192 191 200 208 216
253 258 263 267 272 277 282 287 291 293 293 292 291 289 287 289 296 303 310 316 321 327 334 340 344 347 349 351 352 353 354 354 354 354 355 357 357 358 358 359 360 360 0 1 2 2 3 4 5 7 9 10 11 13 15 17 18 20 21 23 24 26 25 22 18 13 6 353 338 330 330 336 344 348 340 323 303 293 283 270 264 263 245 215 204
253 258 262 267 273 279 284 289 291 290 288 285 284 285 287 293 301 308 313 320 325 331 337 342 345 349 352 353 354 356 356 356 356 355 356 357 358 359 359 359 359 360 0 1 1 2 3 4 5 6 8 10 11 13 14 16 17 19 20 22 23 25 26 27 26 24 21 16 6 351 337 330 328 328 329 329 324 317 307 294 288 287 284 277 268
252 257 262 268 276 282 287 289 288 285 282 280 281 284 291 299 307 313 318 324 330 336 340 343 347 350 352 354 356 357 357 357 357 357 357 357 357 358 359 360 359 359 359 360 0 1 2 3 4 5 7 9 11 12 13 15 16 17 18 20 21 23 25 26 27 28 27 25 24 20 9 351 336 327 322 319 315 312 309 304 298 291 287 288 293
252 257 264 272 280 285 287 287 284 280 276 275 280 288 298 306 313 318 324 329 334 339 343 345 347 349 351 353 355 356 357 357 357 357 357 357 357 358 359 359 359 359 359 359 360 360 0 2 3 4 5 7 9 11 13 14 15 16 16 18 19 21 23 25 27 28 28 27 27 28 27 23 11 350 329 318 312 305 300 298 297 291 283 283 289
251 258 267 277 283 286 286 283 278 269 260 263 279 293 303 312 320 325 330 335 339 341 344 346 347 348 349 351 353 354 355 356 356 357 357 357 357 357 358 359 359 358 358 359 359 359 359 0 1 2 4 5 7 9 11 13 14 15 15 16 17 18 20 21 23 25 27 27 28 29 30 30 29 25 11 346 324 309 301 296 293 290 286 282 279
251 261 271 279 283 283 280 273 261 250 249 260 279 296 308 318 326 331 335 340 342 343 345 346 347 348 348 349 350 351 353 353 354 354 355 356 356 356 356 357 357 357 357 358 358 358 357 358 359 0 2 3 5 7 9 10 12 14 14 15 15 16 17 18 20 22 23 24 26 27 28 29 30 31 29 24 11 347 321 305 296 291 287 283 280
251 262 273 279 280 276 266 250 237 239 250 265 283 300 313 322 329 333 337 340 342 344 344 345 346 347 347 347 348 349 349 350 351 351 352 354 354 354 354 355 355 356 356 356 356 356 356 356 356 358 359 1 2 5 7 8 10 11 13 14 14 14 15 16 17 18 20 21 22 24 25 27 28 29 30 30 28 23 12 351 326 307 295 289 284
249 261 270 273 271 261 246 235 234 245 259 274 289 303 314 322 327 331 334 336 338 340 341 342 343 344 344 345 345 345 346 347 348 348 349 350 351 352 352 352 353 353 354 354 354 354 355 355 354 355 356 358 359 1 4 6 8 9 10 11 12 13 13 13 14 15 17 17 19 20 21 22 24 26 27 29 29 29 27 23 14 357 335 315 302
244 255 261 259 250 240 234 234 242 256 271 284 294 305 313 318 322 325 328 330 332 334 336 337 338 339 340 341 342 342 342 343 344 345 346 346 347 348 349 349 350 350 351 351 352 352 352 352 353 353 353 354 356 358 0 2 4 6 8 9 10 10 11 11 12 13 13 14 15 16 17 18 19 20 22 24 25 27 28 28 27 24 16 4 346
237 244 247 243 236 232 235 242 254 266 278 287 296 303 308 313 317 319 321 323 325 327 329 330 331 333 334 336 337 338 338 338 338 340 341 343 343 344 345 346 347 347 348 349 349 349 349 349 349 350 350 351 352 354 356 358 0 2 3 5 7 8 9 9 10 10 10 11 11 12 13 14 14 15 15 17 18 20 22 24 25 25 25 23 18
230 232 234 235 235 238 244 253 263 273 281 287 293 299 304 308 311 314 315 318 319 320 322 323 324 326 327 329 331 332 333 334 334 334 336 337 339 340 341 342 342 343 344 345 346 346 347 347 347 347 347 348 349 350 352 354 356 358 360 1 2 4 5 6 7 7 8 8 8 8 9 9 10 10 10 11 11 12 14 15 17 19 20 21 21
228 230 232 235 240 245 251 259 267 274 281 286 291 296 300 303 306 309 311 313 314 315 316 318 318 320 321 323 325 326 328 329 330 330 331 332 334 335 337 338 338 339 340 341 342 343 344 344 344 344 344 344 345 346 347 349 351 353 355 357 358 359 0 1 3 4 4 5 5 5 5 5 5 6 6 6 6 6 6 6 7 9 10 12 13
231 233 236 240 245 251 256 262 269 274 279 284 289 293 296 300 302 304 307 308 310 311 312 313 314 315 316 317 319 321 322 324 325 326 327 327 328 330 332 333 334 335 336 337 338 339 340 341 341 342 341 341 341 341 343 344 346 348 349 352 353 355 355 356 357 358 359 0 1 1 2 2 2 2 1 1 0 0 360 360 360 0 1 2 3
236 239 242 246 251 256 261 266 270 274 279 283 287 290 294 297 299 301 304 305 306 307 308 309 310 311 312 313 315 316 318 319 320 321 322 323 324 325 327 328 329 331 332 332 333 334 335 336 337 338 338 338 338 338 338 339 340 342 343 345 347 349 350 351 352 353 354 355 355 356 356 357 357 357 357 357 356 355 354 353 353 353 352 353 353
Height
5799 5799 5799 5799 5798 5798 5797 5797 5796 5795 5794 5793 5792 5791 5791 5790 5789 5788 5787 5787 5786 5785 5783 5782 5781 5779 5778 5776 5775 5773 5771 5769 5767 5766 5764 5762 5760 5758 5756 5755 5753 5751 5749 5748 5747 5745 5744 5743 5742 5741 5739 5738 5737 5736 5735 5734 5732 5731 5730 5730 5729 5728 5727 5726 5726 5729 5731 5728 5727 5728 5726 5725 5725 5724 5723 5723 5723 5723 5723 5723 5723 5724 5725 5725 5726
5797 5797 5796 5796 5795 5795 5794 5794 5792 5792 5791 5790 5789 5788 5787 5786 5785 5785 5784 5783 5782 5781 5779 5778 5776 5775 5773 5772 5770 5768 5766 5764 5762 5761 5759 5757 5755 5753 5751 5749 5747 5746 5744 5742 5741 5739 5738 5737 5735 5734 5733 5732 5731 5730 5729 5727 5726 5725 5724 5723 5723 5722 5721 5720 5719 5721 5724 5723 5722 5721 5721 5720 5720 5720 5719 5719 5718 5718 5718 5719 5719 5719 5720 5720 5721
5794 5794 5793 5792 5792 5792 5791 5790 5789 5788 5787 5786 5785 5784 5783 5782 5781 5780 5780 5779 5777 5776 5775 5774 5772 5771 5769 5767 5765 5763 5761 5759 5757 5755 5754 5752 5750 5748 5746 5744 5742 5740 5738 5737 5735 5733 5732 5730 5729 5728 5726 5725 5724 5723 5722 5721 5720 5719 5718 5716 5716 5715 5714 5713 5712 5713 5716 5718 5716 5715 5715 5714 5714 5715 5715 5714 5714 5713 5713 5714 5714 5714 5714 5715 5716
5791 5790 5790 5789 5788 5787 5787 5785 5784 5783 5783 5782 5781 5780 5779 5778 5777 5776 5775 5774 5773 5772 5770 5769 5768 5766 5764 5762 5760 5758 5756 5754 5752 5750 5748 5746 5744 5742 5740 5738 5737 5735 5733 5731 5729 5727 5726 5724 5722 5721 5720 5718 5717 5716 5715 5714 5712 5711 5711 5710 5709 5708 5707 5706 5705 5705 5707 5710 5711 5709 5709 5708 5708 5709 5709 5709 5709 5709 5709 5709 5708 5708 5709 5709 5710
5787 5787 5786 5785 5784 5783 5782 5781 5780 5779 5778 5777 5777 5776 5775 5774 5773 5772 5771 5770 5769 5767 5766 5764 5763 5761 5759 5757 5755 5753 5751 5749 5747 5745 5743 5741 5739 5737 5735 5733 5731 5729 5727 5725 5723 5721 5719 5717 5716 5714 5713 5711 5710 5709 5707 5706 5705 5704 5703 5702 5701 5701 5700 5699 5698 5698 5698 5701 5703 5703 5702 5702 5702 5703 5703 5703 5703 5704 5704 5704 5704 5703 5703 5704 5705
5784 5783 5782 5781 5779 5778 5777 5776 5775 5775 5774 5773 5772 5772 5771 5770 5769 5768 5767 5766 5764 5763 5761 5760 5758 5756 5754 5752 5750 5748 5746 5744 5742 5740 5737 5735 5733 5731 5729 5727 5725 5722 5720 5718 5716 5714 5712 5710 5709 5707 5706 5704 5703 5701 5700 5698 5697 5696 5694 5694 5693 5692 5692 5692 5691 5690 5690 5691 5694 5696 5696 5695 5695 5696 5697 5696 5696 5697 5698 5698 5698 5698 5698 5698 5699
5780 5778 5777 5776 5774 5773 5772 5772 5771 5770 5769 5769 5768 5767 5766 5766 5765 5764 5762 5761 5760 5759 5757 5755 5753 5751 5749 5747 5745 5743 5741 5739 5736 5734 5732 5730 5728 5725 5723 5721 5718 5716 5714 5711 5709 5707 5705 5703 5701 5700 5698 5697 5695 5693 5692 5690 5689 5687 5686 5685 5684 5684 5683 5683 5682 5682 5682 5683 5684 5687 5688 5688 5688 5689 5690 5689 5689 5691 5692 5692 5693 5693 5692 5692 5693
5775 5773 5772 5771 5770 5769 5768 5767 5766 5766 5765 5764 5764 5763 5762 5761 5760 5759 5758 5757 5756 5754 5752 5750 5748 5746 5744 5742 5740 5738 5736 5734 5731 5729 5726 5724 5722 5720 5717 5715 5712 5710 5707 5705 5703 5700 5698 5696 5694 5692 5690 5689 5687 5685 5683 5682 5681 5679 5677 5676 5675 5674 5674 5674 5674 5673 5673 5674 5675 5677 5679 5680 5681 5682 5683 5682 5682 5684 5685 5686 5686 5686 5686 5687 5688
5769 5768 5767 5766 5765 5764 5763 5762 5762 5761 5760 5760 5759 5758 5758 5757 5756 5755 5754 5752 5751 5749 5747 5746 5744 5742 5740 5737 5735 5733 5731 5729 5726 5724 5721 5719 5716 5714 5712 5710 5707 5704 5702 5700 5697 5694 5692 5689 5687 5685 5683 5681 5679 5677 5674 5672 5671 5670 5668 5667 5665 5665 5664 5664 5664 5664 5664 5665 5666 5668 5669 5671 5673 5674 5675 5675 5675 5677 5678 5678 5679 5681 5681 5682 5682
5764 5763 5762 5761 5760 5759 5758 5758 5757 5757 5756 5755 5755 5754 5753 5752 5752 5750 5749 5748 5746 5745 5743 5741 5739 5737 5735 5732 5730 5728 5726 5723 5721 5718 5716 5714 5711 5709 5706 5704 5701 5699 5696 5694 5691 5688 5685 5683 5680 5677 5675 5673 5671 5668 5666 5663 5660 5659 5658 5656 5655 5655 5654 5654 5654 5654 5654 5655 5657 5658 5659 5662 5664 5665 5667 5668 5668 5669 5671 5671 5672 5674 5675 5675 5676
5759 5758 5757 5756 5756 5755 5754 5753 5753 5752 5751 5751 5750 5749 5749 5748 5747 5746 5745 5744 5742 5741 5739 5737 5734 5732 5730 5728 5725 5723 5721 5718 5716 5713 5711 5708 5706 5703 5700 5698 5695 5692 5689 5686 5684 5681 5678 5675 5672 5669 5667 5664 5662 5660 5657 5654 5651 5648 5646 5645 5643 5643 5643 5643 5643 5643 5644 5644 5646 5648 5649 5652 5654 5655 5657 5659 5660 5661 5663 5663 5665 5667 5668 5669 5671
5755 5754 5753 5752 5751 5750 5750 5749 5748 5747 5747 5746 5745 5745 5745 5744 5743 5742 5741 5740 5738 5736 5734 5732 5730 5728 5725 5723 5720 5718 5716 5713 5711 5708 5705 5703 5700 5697 5694 5691 5688 5685 5682 5679 5676 5674 5671 5668 5664 5661 5659 5656 5654 5652 5649 5646 5643 5639 5636 5634 5631 5630 5629 5630 5631 5632 5633 5633 5635 5637 5639 5641 5644 5646 5647 5649 5651 5653 5655 5655 5657 5659 5661 5663 5665
5750 5750 5749 5748 5747 5747 5746 5745 5744 5744 5743 5743 5742 5742 5741 5740 5739 5738 5737 5736 5734 5732 5730 5728 5725 5723 5721 5718 5716 5713 5711 5708 5706 5703 5700 5697 5694 5691 5688 5685 5682 5679 5676 5673 5670 5667 5664 5661 5657 5654 5651 5648 5645 5642 5640 5637 5634 5631 5627 5624 5621 5619 5617 5616 5617 5618 5620 5621 5623 5626 5628 5630 5633 5636 5637 5639 5641 5645 5646 5647 5649 5651 5653 5656 5658
5746 5746 5745 5745 5744 5743 5743 5742 5742 5741 5741 5740 5740 5739 5738 5737 5736 5735 5733 5732 5730 5728 5726 5723 5721 5719 5716 5714 5711 5709 5706 5703 5701 5698 5695 5692 5689 5686 5683 5679 5676 5673 5670 5667 5663 5660 5657 5654 5650 5646 5642 5639 5636 5633 5630 5627 5624 5621 5618 5614 5611 5608 5605 5604 5603 5603 5605 5607 5610 5614 5617 5618 5621 5625 5627 5628 5631 5635 5638 5639 5641 5644 5645 5647 5650
5743 5742 5742 5741 5741 5740 5740 5739 5739 5738 5738 5737 5736 5735 5734 5733 5732 5731 5729 5727 5726 5724 5722 5719 5717 5714 5712 5710 5707 5704 5702 5699 5696 5693 5690 5687 5684 5681 5678 5675 5671 5668 5664 5661 5657 5654 5650 5647 5643 5639 5635 5631 5626 5623 5620 5616 5612 5609 5607 5603 5600 5597 5594 5592 5590 5590 5590 5592 5596 5600 5604 5608 5610 5613 5617 5619 5621 5625 5628 5630 5633 5636 5637 5638 5642
5739 5739 5738 5738 5738 5737 5737 5736 5736 5735 5735 5734 5733 5732 5731 5729 5728 5726 5725 5723 5721 5720 5717 5715 5713 5711 5708 5706 5703 5701 5698 5695 5692 5689 5686 5683 5680 5677 5673 5670 5666 5662 5659 5655 5651 5647 5643 5639 5635 5631 5627 5622 5617 5613 5609 5605 5601 5597 5593 5590 5587 5585 5582 5579 5577 5577 5577 5579 5581 5585 5590 5596 5599 5602 5606 5609 5611 5614 5617 5621 5625 5627 5628 5630 5634
5736 5735 5735 5735 5735 5734 5734 5733 5733 5732 5731 5730 5729 5728 5727 5725 5724 5722 5721 5719 5717 5715 5713 5711 5709 5707 5704 5702 5700 5697 5695 5692 5689 5686 5683 5679 5676 5673 5669 5665 5661 5657 5653 5650 5646 5641 5637 5632 5628 5623 5618 5613 5608 5604 5599 5594 5590 5585 5581 5577 5573 5570 5568 5565 5563 5563 5564 5566 5568 5570 5574 5580 5586 5591 5594 5598 5601 5603 5606 5612 5617 5619 5620 5623 5627
5732 5732 5732 5732 5732 5731 5731 5730 5729 5729 5728 5727 5726 5724 5723 5722 5720 5719 5717 5715 5713 5711 5709 5707 5705 5703 5701 5699 5696 5694 5691 5689 5686 5683 5679 5676 5672 5668 5664 5660 5657 5653 5649 5644 5640 5636 5631 5626 5621 5616 5611 5605 5599 5594 5588 5584 5579 5573 5568 5563 5559 5555 5553 5550 5549 5550 5551 5553 5556 5558 5561 5565 5572 5579 5583 5586 5590 5593 5597 5604 5608 5609 5612 5616 5620
5729 5729 5729 5729 5728 5728 5727 5727 5726 5725 5724 5723 5722 5720 5719 5718 5716 5715 5713 5711 5709 5707 5706 5704 5702 5700 5698 5695 5693 5691 5688 5685 5682 5679 5675 5672 5667 5664 5660 5656 5652 5648 5644 5640 5636 5631 5626 5621 5615 5609 5604 5598 5591 5584 5578 5572 5566 5560 5555 5550 5546 5543 5541 5539 5538 5538 5539 5540 5543 5546 5549 5552 5558 5565 5571 5575 5580 5583 5588 5595 5598 5600 5604 5609 5612
5726 5726 5726 5726 5725 5725 5724 5724 5723 5722 5721 5719 5718 5717 5715 5714 5712 5711 5709 5707 5706 5704 5702 5700 5698 5696 5694 5692 5690 5687 5685 5682 5679 5675 5672 5668 5663 5659 5655 5651 5648 5644 5639 5635 5631 5626 5621 5615 5610 5604 5597 5591 5584 5576 5568 5561 5555 5549 5544 5540 5537 5535 5532 5530 5529 5529 5530 5531 5533 5535 5539 5542 5546 5553 5560 5565 5570 5575 5580 5585 5589 5593 5597 5601 5604
5723 5723 5723 5722 5722 5722 5721 5720 5719 5718 5717 5715 5714 5713 5712 5710 5709 5707 5706 5704 5702 5701 5699 5697 5695 5693 5691 5688 5686 5684 5681 5678 5675 5671 5667 5664 5659 5655 5651 5647 5643 5639 5635 5630 5626 5621 5616 5610 5604 5598 5591 5584 5577 5568 5560 5552 5546 5541 5537 5533 5531 5528 5527 5525 5524 5523 5525 5526 5527 5528 5531 5535 5538 5543 5550 5555 5560 5566 5571 5576 5581 5585 5589 5593 5597
5720 5720 5720 5719 5719 5718 5718 5717 5716 5714 5713 5712 5711 5710 5708 5707 5706 5704 5703 5701 5699 5698 5696 5694 5692 5690 5687 5685 5682 5680 5677 5674 5670 5667 5663 5659 5655 5651 5647 5643 5639 5634 5630 5626 5621 5616 5611 5605 5599 5592 5585 5578 5570 5562 5554 5546 5541 5537 5533 5529 5527 5525 5523 5522 5521 5520 5521 5523 5524 5525 5527 5530 5532 5536 5542 5547 5552 5558 5563 5568 5573 5577 5581 5586 5590
5717 5717 5716 5716 5716 5715 5714 5713 5712 5711 5710 5709 5708 5707 5705 5704 5703 5701 5699 5698 5696 5694 5693 5691 5688 5686 5684 5681 5679 5676 5673 5669 5666 5662 5659 5655 5651 5647 5643 5639 5635 5631 5626 5621 5617 5612 5606 5600 5594 5588 5581 5573 5565 5556 5549 5542 5538 5535 5531 5528 5525 5522 5521 5521 5520 5519 5519 5519 5521 5522 5524 5526 5528 5532 5537 5541 5545 5550 5555 5561 5565 5570 5575 5579 5583
5714 5714 5713 5713 5712 5712 5711 5710 5709 5708 5707 5706 5705 5704 5702 5701 5699 5698 5696 5695 5693 5691 5689 5687 5685 5683 5680 5678 5675 5672 5669 5665 5662 5658 5655 5651 5647 5643 5640 5636 5631 5627 5622 5618 5613 5608 5602 5596 5590 5583 5576 5569 5560 5552 5545 5539 5536 5533 5530 5527 5524 5521 5520 5519 5518 5517 5516 5517 5518 5520 5522 5525 5527 5529 5533 5538 5541 5544 5548 5554 5559 5563 5568 5573 5577
5710 5710 5710 5709 5709 5708 5708 5707 5706 5705 5704 5703 5702 5700 5699 5698 5696 5695 5693 5692 5690 5688 5686 5684 5682 5679 5677 5674 5672 5669 5666 5662 5659 5655 5652 5648 5645 5641 5637 5633 5629 5624 5620 5615 5610 5605 5599 5593 5586 5580 5573 5565 5557 5549 5542 5537 5535 5532 5529 5526 5523 5521 5520 5518 5516 5515 5514 5514 5516 5518 5520 5523 5525 5527 5530 5534 5537 5539 5543 5548 5553 5558 5563 5567 5571
5707 5707 5707 5706 5706 5705 5704 5704 5703 5702 5701 5700 5698 5697 5696 5694 5693 5691 5690 5688 5687 5685 5683 5681 5679 5677 5674 5672 5669 5666 5663 5659 5656 5653 5649 5646 5643 5639 5635 5631 5627 5622 5618 5613 5608 5602 5596 5590 5584 5577 5570 5562 5554 5547 5540 5536 5533 5531 5528 5525 5523 5521 5519 5517 5516 5515 5514 5514 5515 5517 5518 5520 5522 5524 5527 5530 5533 5536 5539 5544 5549 5553 5557 5561 5565
5704 5704 5703 5703 5702 5702 5701 5701 5700 5699 5698 5697 5695 5694 5693 5691 5690 5688 5687 5685 5684 5682 5680 5678 5676 5674 5672 5669 5666 5663 5660 5657 5654 5651 5648 5645 5641 5638 5634 5629 5625 5621 5617 5612 5606 5600 5594 5588 5582 5575 5568 5561 5553 5545 5539 5535 5532 5530 5528 5526 5523 5520 5519 5517 5516 5514 5514 5514 5515 5516 5518 5519 5521 5523 5525 5527 5530 5533 5536 5539 5544 5548 5552 5556 5559
5701 5701 5700 5700 5699 5699 5698 5698 5697 5696 5695 5694 5692 5691 5689 5688 5687 5685 5684 5683 5681 5679 5678 5676 5674 5672 5669 5667 5664 5661 5658 5655 5652 5649 5646 5643 5640 5636 5632 5628 5624 5620 5615 5610 5604 5599 5593 5587 5581 5575 5568 5562 5554 5547 5540 5535 5531 5529 5527 5526 5523 5521 5518 5517 5515 5514 5514 5514 5515 5516 5517 5519 5520 5521 5523 5525 5527 5530 5533 5535 5539 5543 5547 5550 5554
5698 5698 5697 5697 5696 5696 5695 5695 5694 5693 5692 5691 5689 5688 5687 5685 5684 5683 5681 5680 5678 5677 5675 5673 5671 5669 5667 5664 5662 5659 5656 5653 5650 5648 5645 5642 5638 5635 5631 5626 5622 5617 5612 5607 5602 5597 5592 5587 5581 5576 5570 5563 5556 5549 5541 5536 5531 5529 5527 5526 5524 5522 5520 5517 5516 5515 5515 5515 5515 5516 5516 5517 5519 5520 5521 5523 5525 5527 5530 5533 5536 5539 5542 5545 5549
5695 5694 5694 5694 5693 5693 5693 5692 5691 5690 5689 5688 5686 5685 5684 5683 5681 5680 5679 5677 5676 5674 5673 5671 5669 5667 5665 5662 5659 5657 5654 5651 5648 5646 5643 5640 5636 5632 5628 5624 5620 5615 5610 5605 5601 5597 5592 5587 5582 5577 5571 5564 5557 5550 5543 5537 5532 5529 5527 5525 5524 5523 5521 5518 5517 5516 5516 5516 5515 5515 5516 5516 5517 5518 5520 5522 5523 5525 5528 5530 5533 5536 5539 5542 5545
5692 5691 5691 5691 5691 5690 5690 5689 5688 5687 5686 5685 5684 5682 5681 5680 5679 5677 5676 5675 5674 5672 5670 5669 5667 5665 5662 5660 5657 5654 5651 5649 5646 5644 5641 5638 5634 5630 5626 5622 5618 5613 5609 5605 5601 5596 5592 5587 5582 5577 5571 5565 5558 5551 5545 5538 5533 5530 5527 5525 5524 5524 5522 5521 5518 5517 5517 5516 5516 5515 5515 5515 5516 5517 5518 5520 5522 5523 5526 5528 5530 5533 5536 5539 5541
5689 5688 5688 5688 5688 5687 5686 5686 5685 5684 5683 5682 5681 5680 5679 5677 5676 5675 5674 5672 5671 5670 5668 5666 5665 5662 5660 5657 5655 5652 5649 5647 5644 5642 5639 5636 5632 5629 5625 5621 5616 5612 5608 5605 5600 5596 5592 5587 5583 5577 5572 5566 5560 5554 5547 5540 5535 5531 5528 5526 5524 5523 5523 5522 5520 5518 5517 5516 5516 5515 5515 5515 5516 5516 5516 5518 5519 5521 5523 5525 5527 5529 5532 5534 5537
5686 5685 5685 5685 5684 5684 5683 5683 5682 5681 5680 5679 5678 5677 5676 5675 5674 5672 5671 5670 5669 5667 5666 5664 5662 5660 5658 5655 5653 5650 5647 5645 5642 5640 5637 5634 5630 5627 5623 5619 5615 5612 5608 5604 5600 5596 5592 5587 5583 5578 5573 5567 5562 5556 5550 5544 5537 5532 5528 5526 5524 5523 5522 5521 5520 5519 5518 5517 5516 5515 5515 5515 5516 5516 5516 5517 5518 5519 5520 5522 5524 5526 5528 5531 5533
5683 5682 5682 5682 5681 5681 5681 5680 5679 5679 5678 5677 5676 5675 5673 5672 5671 5670 5669 5668 5667 5665 5664 5662 5660 5658 5656 5653 5651 5648 5646 5643 5641 5638 5635 5632 5629 5626 5622 5619 5615 5612 5608 5604 5600 5596 5592 5588 5583 5579 5574 5569 5564 5559 5553 5548 5542 5536 5531 5527 5525 5523 5522 5522 5521 5521 5520 5518 5517 5516 5516 5515 5516 5516 5516 5517 5518 5518 5519 5520 5522 5523 5525 5528 5529
5679 5679 5679 5679 5679 5678 5678 5678 5677 5676 5675 5674 5673 5672 5671 5670 5669 5668 5667 5666 5665 5663 5662 5660 5658 5656 5654 5652 5649 5647 5644 5642 5639 5637 5634 5631 5628 5625 5621 5618 5615 5612 5608 5604 5600 5596 5592 5588 5584 5579 5575 5570 5566 5561 5556 5551 5546 5540 5535 5531 5527 5525 5523 5522 5522 5521 5520 5519 5518 5518 5517 5517 5517 5517 5517 5517 5518 5518 5519 5519 5520 5522 5523 5525 5527
5676 5676 5676 5676 5676 5676 5675 5675 5674 5674 5673 5672 5671 5670 5668 5667 5666 5666 5665 5664 5663 5662 5660 5658 5656 5654 5652 5650 5648 5645 5643 5640 5638 5635 5633 5630 5627 5624 5621 5618 5615 5611 5608 5604 5600 5597 5593 5589 5585 5580 5576 5572 5567 5563 5558 5553 5549 5544 5539 5535 5531 5527 5524 5522 5521 5520 5520 5519 5519 5518 5518 5517 5517 5517 5517 5517 5518 5518 5518 5519 5519 5520 5522 5523 5525
5673 5674 5674 5673 5673 5673 5673 5672 5672 5671 5670 5669 5668 5667 5666 5665 5665 5664 5663 5662 5661 5660 5658 5656 5655 5653 5651 5648 5646 5644 5641 5639 5637 5634 5632 5629 5626 5623 5620 5617 5614 5611 5608 5604 5601 5597 5593 5589 5585 5581 5577 5573 5569 5565 5560 5556 5552 5547 5543 5538 5534 5530 5527 5524 5522 5521 5520 5520 5519 5519 5518 5517 5516 5516 5516 5516 5516 5517 5517 5518 5518 5519 5520 5522 5523
5671 5671 5671 5671 5671 5671 5670 5670 5669 5668 5668 5667 5666 5665 5664 5664 5663 5662 5661 5660 5659 5658 5656 5655 5653 5651 5649 5647 5645 5642 5640 5638 5635 5633 5631 5628 5625 5622 5619 5616 5613 5610 5607 5604 5601 5597 5594 5590 5586 5582 5578 5574 5570 5566 5563 5559 5555 5551 5546 5542 5538 5534 5531 5527 5524 5522 5521 5520 5520 5519 5519 5518 5517 5516 5515 5515 5515 5515 5516 5516 5517 5518 5519 5520 5521
5668 5668 5668 5669 5669 5668 5668 5667 5667 5666 5665 5665 5664 5663 5663 5662 5661 5660 5660 5659 5657 5656 5655 5653 5651 5650 5648 5646 5643 5641 5639 5637 5634 5632 5629 5626 5624 5621 5619 5616 5613 5610 5607 5604 5601 5598 5594 5591 5587 5583 5580 5576 5572 5568 5564 5561 5557 5554 5550 5546 5542 5539 5535 5532 5528 5525 5523 5521 5520 5520 5519 5519 5518 5518 5517 5517 5516 5516 5516 5516 5517 5517 5518 5518 5519
5666 5666 5666 5666 5666 5666 5665 5665 5664 5663 5663 5662 5662 5661 5661 5660 5660 5659 5658 5657 5656 5655 5653 5652 5650 5648 5646 5644 5642 5640 5638 5635 5633 5630 5628 5625 5623 5621 5618 5615 5612 5610 5607 5604 5601 5598 5595 5591 5588 5584 5581 5577 5573 5570 5566 5562 5559 5556 5553 5549 5546 5542 5539 5535 5532 5528 5525 5523 5521 5520 5520 5519 5519 5519 5518 5518 5518 5517 5517 5517 5517 5518 5517 5517 5518
5663 5664 5664 5664 5664 5663 5663 5662 5662 5661 5661 5660 5660 5660 5660 5659 5658 5658 5657 5655 5654 5653 5652 5650 5649 5647 5645 5643 5641 5639 5637 5635 5632 5630 5627 5625 5622 5620 5617 5615 5612 5609 5606 5604 5601 5598 5595 5592 5588 5585 5582 5578 5575 5571 5568 5564 5561 5558 5555 5551 5548 5545 5542 5539 5536 5533 5530 5527 5524 5522 5520 5519 5519 5518 5518 5518 5518 5518 5517 5517 5517 5518 5518 5518 5518
5661 5661 5661 5661 5661 5661 5660 5660 5659 5659 5659 5659 5658 5658 5658 5657 5657 5656 5655 5654 5653 5651 5650 5649 5647 5646 5644 5642 5640 5638 5636 5634 5632 5629 5627 5624 5621 5619 5616 5614 5611 5609 5606 5603 5601 5598 5595 5592 5589 5586 5583 5579 5576 5573 5569 5566 5563 5560 5556 5553 5550 5547 5544 5542 5539 5536 5534 5531 5528 5525 5522 5520 5519 5518 5518 5518 5517 5517 5517 5517 5517 5517 5517 5517 5517
5659 5659 5659 5659 5659 5658 5658 5657 5657 5657 5657 5657 5657 5657 5656 5656 5655 5654 5653 5652 5651 5650 5649 5647 5646 5644 5643 5641 5639 5637 5635 5633 5631 5629 5626 5623 5621 5618 5615 5613 5611 5608 5606 5603 5600 5598 5595 5592 5589 5586 5583 5580 5577 5574 5571 5567 5564 5561 5558 5555 5552 5549 5547 5544 5541 5539 5537 5534 5532 5529 5526 5523 5521 5519 5518 5518 5517 5517 5517 5516 5516 5516 5516 5516 5516
5656 5657 5657 5656 5656 5656 5656 5655 5655 5656 5656 5656 5655 5655 5655 5654 5653 5653 5652 5651 5650 5649 5647 5646 5645 5643 5641 5640 5638 5636 5634 5632 5630 5628 5625 5623 5620 5617 5615 5612 5610 5607 5605 5602 5600 5597 5595 5592 5589 5587 5584 5581 5578 5575 5572 5569 5566 5563 5560 5557 5554 5552 5549 5546 5544 5541 5539 5537 5534 5532 5530 5527 5525 5522 5520 5519 5518 5517 5516 5516 5516 5515 5515 5515 5515
5654 5654 5654 5654 5654 5654 5654 5654 5654 5654 5654 5654 5654 5653 5653 5652 5652 5651 5650 5649 5648 5647 5646 5644 5643 5641 5640 5638 5636 5634 5632 5630 5628 5626 5624 5622 5619 5617 5614 5612 5609 5606 5604 5602 5599 5597 5594 5592 5589 5587 5584 5581 5579 5576 5573 5570 5567 5564 5561 5558 5556 5553 5551 5548 5546 5543 5541 5538 5536 5534 5532 5530 5528 5526 5524 5522 5520 5518 5517 5516 5516 5515 5515 5514 5514
5652 5652 5652 5652 5652 5652 5652 5652 5652 5652 5652 5652 5652 5652 5651 5651 5650 5649 5648 5647 5646 5645 5643 5642 5641 5639 5638 5636 5635 5633 5631 5629 5627 5625 5623 5620 5618 5616 5614 5611 5608 5606 5603 5601 5599 5596 5594 5591 5589 5586 5584 5581 5579 5576 5573 5571 5568 5565 5563 5560 5557 5555 5552 5549 5547 5545 5542 5540 5538 5536 5534 5532 5530 5529 5527 5525 5523 5521 5520 5518 5517 5516 5515 5514 5514
5650 5650 5650 5650 5650 5650 5650 5651 5651 5651 5651 5651 5650 5650 5649 5649 5648 5647 5646 5645 5644 5643 5641 5640 5639 5637 5636 5634 5632 5631 5629 5627 5625 5623 5621 5619 5617 5615 5612 5610 5608 5605 5602 5600 5598 5595 5593 5591 5588 5586 5584 5581 5579 5576 5574 5571 5569 5566 5563 5561 5558 5556 5553 5551 5548 5546 5544 5542 5539 5537 5535 5534 5532 5530 5529 5527 5526 5524 5522 5521 5519 5518 5517 5516 5515
5648 5648 5648 5648 5648 5648 5649 5649 5649 5649 5649 5649 5648 5648 5647 5646 5646 5645 5644 5643 5642 5640 5639 5638 5636 5635 5633 5632 5630 5628 5627 5625 5623 5621 5619 5617 5615 5613 5611 5609 5606 5604 5602 5599 5597 5594 5592 5590 5587 5585 5583 5581 5578 5576 5574 5571 5569 5566 5564 5561 5559 5556 5554 5552 5549 5547 5545 5543 5541 5539 5537 5535 5533 5531 5530 5528 5527 5525 5524 5523 5521 5520 5519 5517 5516
5645 5646 5646 5646 5646 5646 5647 5647 5647 5647 5647 5646 5646 5645 5645 5644 5643 5643 5642 5640 5639 5638 5637 5635 5634 5632 5631 5629 5627 5626 5624 5622 5621 5619 5617 5615 5613 5611 5609 5607 5605 5602 5600 5598 5596 5593 5591 5589 5586 5584 5582 5579 5577 5575 5573 5571 5568 5566 5564 5562 5559 5557 5555 5552 5550 5548 5546 5544 5542 5539 5538 5536 5534 5532 5531 5529 5528 5526 5525 5524 5522 5521 5520 5518 5517
5643 5643 5644 5644 5644 5644 5644 5644 5644 5644 5644 5644 5643 5643 5642 5641 5641 5640 5639 5638 5637 5635 5634 5632 5631 5630 5628 5626 5625 5623 5621 5619 5618 5616 5614 5613 5611 5609 5607 5605 5603 5601 5599 5596 5594 5592 5590 5587 5585 5583 5580 5578 5576 5574 5572 5570 5568 5566 5563 5561 5559 5557 5555 5553 5550 5548 5546 5544 5542 5540 5538 5536 5534 5533 5531 5530 5528 5527 5525 5524 5523 5521 5520 5519 5518
5641 5641 5641 5641 5642 5642 5642 5642 5642 5642 5641 5641 5640 5640 5639 5639 5638 5637 5636 5635 5634 5632 5631 5629 5628 5626 5625 5624 5622 5620 5619 5617 5615 5613 5611 5610 5608 5606 5604 5602 5601 5599 5597 5594 5592 5590 5588 5586 5584 5582 5579 5577 5575 5573 5571 5569 5567 5565 5562 5560 5559 5557 5555 5553 5551 5548 5546 5544 5542 5540 5538 5537 5535 5533 5531 5530 5528 5527 5525 5524 5523 5521 5520 5519 5518